Вернуться в каталог

FENGYUN 1C DEB

АктивенPO
NORAD 29934·DEBRIS·🇨🇳 China

Запущен May 10, 1999 с Taiyuan Satellite Launch Center

Loading…

Ближайшие Пролёты (ближайшие 24 часа)

TLE

СвежийSource: Space-Track

Эпоха: Sep 14, 2026, 16:01 UTC

1 29934U 99025JG  26257.66760704  .00003817  00000-0  65951-3 0  9998
2 29934  98.8721 331.5905 0099107 122.3669 238.7172 14.65883078 38095

Отслеживайте FENGYUN 1C DEB в реальном времени с AllMySat

Download on the App Store